This is the latest recevied weather packets stored in our database for station/object OM6ACB-6. If no packets are shown the sender has not sent any weather packets the latest 10 day(s).
| Time | Temp. | Humidity | Pressure | Rain* | Wind** | Luminosity | Snow |
|---|---|---|---|---|---|---|---|
| 1788576954 | 17.22° C | 24% | 1018.1 hPa | 1.27 mm | - | - | - |
| 1788576354 | 17.22° C | 24% | 1017.9 hPa | 1.27 mm | - | - | - |
| 1788575753 | 17.78° C | 24% | 1017.7 hPa | 1.27 mm | - | - | - |
| 1788575153 | 17.78° C | 24% | 1017.7 hPa | 0.25 mm | - | - | - |
| 1788574553 | 20° C | 23% | 1017.7 hPa | 0.25 mm | - | - | - |
| 1788573952 | 20° C | 23% | 1017.4 hPa | 0 mm | - | - | - |
| 1788573352 | 19.44° C | 23% | 1017 hPa | 0 mm | - | - | - |
| 1788572752 | 20° C | 23% | 1017 hPa | 0 mm | - | - | - |
| 1788572152 | 20° C | 23% | 1016.8 hPa | 0 mm | - | - | - |
| 1788571551 | 19.44° C | 23% | 1016.9 hPa | 0 mm | - | - | - |
| 1788570951 | -18.33° C | 12% | 1010.1 hPa | 0 mm | - | - | - |
| 1788570351 | 19.44° C | 23% | 1016.8 hPa | 0 mm | - | - | - |
| 1788569750 | 19.44° C | 23% | 1016.8 hPa | 0 mm | - | - | - |
| 1788569150 | 19.44° C | 23% | 1016.8 hPa | 0 mm | - | - | - |
| 1788568550 | 19.44° C | 23% | 1016.8 hPa | 0 mm | - | - | - |
| 1788567950 | 18.89° C | 23% | 1016.7 hPa | 0 mm | - | - | - |
| 1788567349 | 18.33° C | 23% | 1016.7 hPa | 0 mm | - | - | - |
| 1788566749 | 18.33° C | 23% | 1016.7 hPa | 0 mm | - | - | - |
| 1788566149 | 18.33° C | 23% | 1016.6 hPa | 0 mm | - | - | - |
| 1788565548 | 18.33° C | 23% | 1016.7 hPa | 0 mm | - | - | - |
| 1788564948 | 18.33° C | 23% | 1016.7 hPa | 0 mm | - | - | - |
| 1788564348 | 17.78° C | 24% | 1016.8 hPa | 0 mm | - | - | - |
| 1788563747 | 17.78° C | 24% | 1016.8 hPa | 0 mm | - | - | - |
| 1788563147 | 17.78° C | 24% | 1016.9 hPa | 0 mm | - | - | - |
| 1788562547 | 18.33° C | 23% | 1016.9 hPa | 0 mm | - | - | - |
* Rain latest hour (hover to see other rain measurements)
** Current wind speed in m/s (hover to see current wind gust speed)